TimeCDT,TemperatureF,Dew PointF,Humidity,Sea Level PressureIn,VisibilityMPH,Wind Direction,Wind SpeedMPH,Gust SpeedMPH,PrecipitationIn,Events,Conditions,WindDirDegrees,DateUTC
12:43 AM,64.4,62.6,94,29.91,10.0,South,6.9,-,N/A,,Overcast,180,2013-04-01 05:43:00
12:48 AM,64.4,62.6,94,29.91,10.0,South,8.1,-,N/A,,Overcast,180,2013-04-01 05:48:00
12:58 AM,64.2,63.1,96,29.91,10.0,South,5.8,-,N/A,,Overcast,180,2013-04-01 05:58:00
1:48 AM,62.6,62.6,100,29.91,10.0,SSW,5.8,-,N/A,,Mostly Cloudy,200,2013-04-01 06:48:00
1:49 AM,62.6,62.6,100,29.91,10.0,SSW,4.6,-,N/A,,Mostly Cloudy,210,2013-04-01 06:49:00
1:54 AM,62.6,62.6,100,29.91,10.0,SSW,4.6,-,N/A,,Mostly Cloudy,200,2013-04-01 06:54:00
1:58 AM,63.3,62.1,96,29.91,10.0,SSW,4.6,-,N/A,,Scattered Clouds,200,2013-04-01 06:58:00
2:08 AM,62.6,62.6,100,29.91,9.0,SSW,4.6,-,N/A,,Mostly Cloudy,200,2013-04-01 07:08:00
2:53 AM,62.6,62.6,100,29.92,8.0,SSW,4.6,-,N/A,,Overcast,210,2013-04-01 07:53:00
2:58 AM,63.3,62.8,98,29.92,9.0,SSW,4.6,-,N/A,,Overcast,200,2013-04-01 07:58:00
3:13 AM,64.4,62.6,94,29.93,10.0,SSW,5.8,-,N/A,,Mostly Cloudy,210,2013-04-01 08:13:00
3:18 AM,62.6,62.6,100,29.92,10.0,SSW,5.8,-,N/A,,Mostly Cloudy,210,2013-04-01 08:18:00
3:28 AM,62.6,62.6,100,29.92,10.0,SW,4.6,-,N/A,,Mostly Cloudy,220,2013-04-01 08:28:00
3:58 AM,62.8,61.9,97,29.93,8.0,SW,4.6,-,N/A,,Scattered Clouds,220,2013-04-01 08:58:00
4:58 AM,61.3,60.6,97,29.94,3.0,SSW,2.3,-,N/A,,Clear,210,2013-04-01 09:58:00
5:03 AM,60.8,60.8,100,29.93,0.8,SW,2.3,-,N/A,,Clear,220,2013-04-01 10:03:00
5:08 AM,60.8,60.8,100,29.93,0.5,SW,2.3,-,N/A,Fog,Fog,230,2013-04-01 10:08:00
5:13 AM,60.8,60.8,100,29.94,0.2,SW,2.3,-,N/A,Fog,Fog,230,2013-04-01 10:13:00
5:33 AM,60.8,59.0,94,29.94,0.5,West,2.3,-,N/A,Fog,Fog,260,2013-04-01 10:33:00
5:38 AM,60.8,59.0,94,29.94,1.5,West,3.5,-,N/A,,Partly Cloudy,270,2013-04-01 10:38:00
5:43 AM,60.8,60.8,100,29.95,5.0,West,3.5,-,N/A,,Partly Cloudy,260,2013-04-01 10:43:00
5:58 AM,60.3,59.9,99,29.96,5.0,West,3.5,-,N/A,,Partly Cloudy,270,2013-04-01 10:58:00
6:58 AM,59.5,58.8,97,29.98,10.0,West,4.6,-,N/A,,Partly Cloudy,260,2013-04-01 11:58:00
7:58 AM,61.3,60.1,96,30.01,10.0,WNW,6.9,-,N/A,,Partly Cloudy,290,2013-04-01 12:58:00
8:58 AM,64.2,58.5,82,30.01,10.0,WNW,9.2,-,N/A,,Scattered Clouds,300,2013-04-01 13:58:00
9:03 AM,64.4,59.0,83,30.02,10.0,WNW,8.1,-,N/A,,Mostly Cloudy,300,2013-04-01 14:03:00
9:18 AM,64.4,57.2,77,30.02,10.0,NW,9.2,-,N/A,,Mostly Cloudy,310,2013-04-01 14:18:00
9:58 AM,65.7,57.4,75,30.04,10.0,WNW,9.2,-,N/A,,Mostly Cloudy,300,2013-04-01 14:58:00
10:58 AM,64.9,57.2,76,30.04,10.0,NW,6.9,-,N/A,,Overcast,320,2013-04-01 15:58:00
11:58 AM,66.2,57.6,74,30.04,10.0,NNW,8.1,-,N/A,,Overcast,330,2013-04-01 16:58:00
12:58 PM,68.4,57.6,68,30.04,10.0,Variable,2.3,-,N/A,,Overcast,0,2013-04-01 17:58:00
1:58 PM,68.0,57.2,68,30.04,10.0,NNW,9.2,-,N/A,,Overcast,340,2013-04-01 18:58:00
2:28 PM,69.8,57.2,64,30.01,10.0,NNW,6.9,-,N/A,,Scattered Clouds,340,2013-04-01 19:28:00
2:58 PM,72.5,56.8,58,30.01,10.0,NW,9.2,-,N/A,,Partly Cloudy,320,2013-04-01 19:58:00
3:58 PM,75.2,55.2,50,29.99,10.0,NW,6.9,-,N/A,,Partly Cloudy,310,2013-04-01 20:58:00
4:58 PM,75.7,52.9,45,29.97,10.0,NNW,9.2,-,N/A,,Partly Cloudy,340,2013-04-01 21:58:00
5:58 PM,74.7,50.7,43,29.99,10.0,West,8.1,-,N/A,,Clear,280,2013-04-01 22:58:00
6:58 PM,70.9,52.5,52,29.99,10.0,NW,5.8,-,N/A,,Clear,310,2013-04-01 23:58:00
7:58 PM,67.3,52.2,58,30.01,10.0,WNW,4.6,-,N/A,,Clear,300,2013-04-02 00:58:00
8:58 PM,64.0,52.2,65,30.01,10.0,WNW,4.6,-,N/A,,Clear,300,2013-04-02 01:58:00
9:58 PM,60.8,52.3,74,30.04,10.0,WNW,5.8,-,N/A,,Clear,290,2013-04-02 02:58:00
10:58 PM,59.9,52.9,78,30.05,10.0,NW,6.9,-,N/A,,Clear,310,2013-04-02 03:58:00
11:58 PM,58.3,52.7,82,30.06,10.0,NW,5.8,-,N/A,,Clear,320,2013-04-02 04:58:00